Time,TemperatureF,DewpointF,PressureIn,WindDirection,WindDirectionDegrees,WindSpeedMPH,WindSpeedGustMPH,Humidity,HourlyPrecipIn,Conditions,Clouds,dailyrainin,SoftwareType,DateUTC
2013-10-10 00:02:00,53.2,46.5,30.12,NE,51,0.0,0.0,78,0.00,,,0.00,Wunderground v.1.15,2013-10-10 05:02:00,
2013-10-10 00:07:00,53.0,46.7,30.12,ENE,58,0.0,0.0,79,0.00,,,0.00,Wunderground v.1.15,2013-10-10 05:07:00,
2013-10-10 00:13:00,52.9,46.6,30.12,ENE,65,0.0,0.0,79,0.00,,,0.00,Wunderground v.1.15,2013-10-10 05:13:00,
2013-10-10 00:19:00,52.7,46.7,30.12,ENE,66,0.0,0.0,80,0.00,,,0.00,Wunderground v.1.15,2013-10-10 05:19:00,
2013-10-10 00:25:00,52.6,46.6,30.12,ENE,63,0.0,0.0,80,0.00,,,0.00,Wunderground v.1.15,2013-10-10 05:25:00,
2013-10-10 00:31:00,52.6,46.6,30.12,ENE,63,0.0,0.0,80,0.00,,,0.00,Wunderground v.1.15,2013-10-10 05:31:00,
2013-10-10 00:37:00,52.6,46.6,30.12,ENE,62,0.0,0.0,80,0.00,,,0.00,Wunderground v.1.15,2013-10-10 05:37:00,
2013-10-10 00:43:00,52.7,46.7,30.12,WSW,240,0.0,0.0,80,0.00,,,0.00,Wunderground v.1.15,2013-10-10 05:43:00,
2013-10-10 00:49:00,52.8,46.5,30.12,South,181,0.0,0.0,79,0.00,,,0.00,Wunderground v.1.15,2013-10-10 05:49:00,
2013-10-10 00:54:00,52.8,46.8,30.12,South,186,0.0,0.0,80,0.00,,,0.00,Wunderground v.1.15,2013-10-10 05:54:00,
2013-10-10 01:00:00,52.6,46.6,30.12,South,187,0.0,0.0,80,0.00,,,0.00,Wunderground v.1.15,2013-10-10 06:00:00,
2013-10-10 01:05:00,52.5,46.5,30.12,SSW,192,0.0,0.0,80,0.00,,,0.00,Wunderground v.1.15,2013-10-10 06:05:00,
2013-10-10 01:11:00,52.4,46.7,30.12,South,177,0.0,0.0,81,0.00,,,0.00,Wunderground v.1.15,2013-10-10 06:11:00,
2013-10-10 01:17:00,52.4,46.4,30.12,SE,129,0.0,0.0,80,0.00,,,0.00,Wunderground v.1.15,2013-10-10 06:17:00,
2013-10-10 01:22:00,52.5,46.8,30.12,SE,129,0.0,0.0,81,0.00,,,0.00,Wunderground v.1.15,2013-10-10 06:22:00,
2013-10-10 01:28:00,52.3,46.3,30.11,SE,133,0.0,0.0,80,0.00,,,0.00,Wunderground v.1.15,2013-10-10 06:28:00,
2013-10-10 01:34:00,52.3,46.3,30.11,NNE,17,0.0,0.0,80,0.00,,,0.00,Wunderground v.1.15,2013-10-10 06:34:00,
2013-10-10 01:40:00,52.4,46.4,30.11,NNE,17,0.0,0.0,80,0.00,,,0.00,Wunderground v.1.15,2013-10-10 06:40:00,
2013-10-10 01:45:00,52.6,46.3,30.11,ENE,67,0.0,0.0,79,0.00,,,0.00,Wunderground v.1.15,2013-10-10 06:45:00,
2013-10-10 01:51:00,52.7,46.4,30.11,ESE,109,0.0,0.0,79,0.00,,,0.00,Wunderground v.1.15,2013-10-10 06:51:00,
2013-10-10 01:57:00,52.7,46.4,30.11,ESE,105,0.0,0.0,79,0.00,,,0.00,Wunderground v.1.15,2013-10-10 06:57:00,
2013-10-10 02:02:00,52.6,46.3,30.11,NE,50,0.0,0.0,79,0.00,,,0.00,Wunderground v.1.15,2013-10-10 07:02:00,
2013-10-10 02:07:00,52.6,46.3,30.11,South,177,0.0,0.0,79,0.00,,,0.00,Wunderground v.1.15,2013-10-10 07:07:00,
2013-10-10 02:12:00,52.4,46.1,30.12,South,177,0.0,0.0,79,0.00,,,0.00,Wunderground v.1.15,2013-10-10 07:12:00,
2013-10-10 02:17:00,52.3,46.3,30.11,South,171,0.0,0.0,80,0.00,,,0.00,Wunderground v.1.15,2013-10-10 07:17:00,
2013-10-10 02:22:00,52.2,46.2,30.11,NE,41,0.0,0.0,80,0.00,,,0.00,Wunderground v.1.15,2013-10-10 07:22:00,
2013-10-10 02:27:00,52.2,46.2,30.11,NE,41,0.0,0.0,80,0.00,,,0.00,Wunderground v.1.15,2013-10-10 07:27:00,
2013-10-10 02:32:00,52.3,46.0,30.11,ENE,67,0.0,0.0,79,0.00,,,0.00,Wunderground v.1.15,2013-10-10 07:32:00,
2013-10-10 02:37:00,52.4,46.1,30.11,ENE,72,0.0,0.0,79,0.00,,,0.00,Wunderground v.1.15,2013-10-10 07:37:00,
2013-10-10 02:42:00,52.5,46.2,30.11,NNE,15,0.0,0.0,79,0.00,,,0.00,Wunderground v.1.15,2013-10-10 07:42:00,
2013-10-10 02:47:00,52.4,46.1,30.11,NNE,15,0.0,0.0,79,0.00,,,0.00,Wunderground v.1.15,2013-10-10 07:47:00,
2013-10-10 02:52:00,52.3,46.3,30.11,WNW,301,0.0,0.0,80,0.00,,,0.00,Wunderground v.1.15,2013-10-10 07:52:00,
2013-10-10 02:57:00,52.0,46.0,30.11,WNW,301,0.0,0.0,80,0.00,,,0.00,Wunderground v.1.15,2013-10-10 07:57:00,
2013-10-10 03:02:00,51.7,45.7,30.11,WNW,301,0.0,0.0,80,0.00,,,0.00,Wunderground v.1.15,2013-10-10 08:02:00,
2013-10-10 03:07:00,51.5,45.9,30.11,WNW,301,0.0,0.0,81,0.00,,,0.00,Wunderground v.1.15,2013-10-10 08:07:00,
2013-10-10 03:12:00,51.4,45.8,30.11,WNW,301,0.0,0.0,81,0.00,,,0.00,Wunderground v.1.15,2013-10-10 08:12:00,
2013-10-10 03:17:00,51.2,45.9,30.11,WNW,301,0.0,0.0,82,0.00,,,0.00,Wunderground v.1.15,2013-10-10 08:17:00,
2013-10-10 03:22:00,51.1,45.8,30.11,WNW,301,0.0,0.0,82,0.00,,,0.00,Wunderground v.1.15,2013-10-10 08:22:00,
2013-10-10 03:27:00,50.9,45.6,30.11,WNW,301,0.0,0.0,82,0.00,,,0.00,Wunderground v.1.15,2013-10-10 08:27:00,
2013-10-10 03:32:00,50.7,45.4,30.11,WNW,301,0.0,0.0,82,0.00,,,0.00,Wunderground v.1.15,2013-10-10 08:32:00,
2013-10-10 03:37:00,50.7,45.7,30.11,SW,222,0.0,0.0,83,0.00,,,0.00,Wunderground v.1.15,2013-10-10 08:37:00,
2013-10-10 03:42:00,50.8,45.8,30.11,SW,222,0.0,0.0,83,0.00,,,0.00,Wunderground v.1.15,2013-10-10 08:42:00,
2013-10-10 03:47:00,50.8,45.8,30.11,SW,222,0.0,0.0,83,0.00,,,0.00,Wunderground v.1.15,2013-10-10 08:47:00,
2013-10-10 03:52:00,50.6,45.6,30.11,SW,222,0.0,0.0,83,0.00,,,0.00,Wunderground v.1.15,2013-10-10 08:52:00,
2013-10-10 03:57:00,50.5,45.5,30.11,SW,222,0.0,0.0,83,0.00,,,0.00,Wunderground v.1.15,2013-10-10 08:57:00,
2013-10-10 04:02:00,50.4,45.4,30.11,SW,222,0.0,0.0,83,0.00,,,0.00,Wunderground v.1.15,2013-10-10 09:02:00,
2013-10-10 04:07:00,50.4,45.4,30.11,SW,222,0.0,0.0,83,0.00,,,0.00,Wunderground v.1.15,2013-10-10 09:07:00,
2013-10-10 04:12:00,50.5,45.8,30.11,South,169,0.0,0.0,84,0.00,,,0.00,Wunderground v.1.15,2013-10-10 09:12:00,
2013-10-10 04:17:00,50.3,45.6,30.11,South,169,0.0,0.0,84,0.00,,,0.00,Wunderground v.1.15,2013-10-10 09:17:00,
2013-10-10 04:22:00,50.3,45.6,30.11,South,169,0.0,0.0,84,0.00,,,0.00,Wunderground v.1.15,2013-10-10 09:22:00,
2013-10-10 04:27:00,50.2,45.6,30.11,South,169,0.0,0.0,84,0.00,,,0.00,Wunderground v.1.15,2013-10-10 09:27:00,
2013-10-10 04:32:00,50.4,45.4,30.11,South,181,0.0,0.0,83,0.00,,,0.00,Wunderground v.1.15,2013-10-10 09:32:00,
2013-10-10 04:37:00,50.6,45.6,30.11,East,83,0.0,0.0,83,0.00,,,0.00,Wunderground v.1.15,2013-10-10 09:37:00,
2013-10-10 04:42:00,50.7,45.7,30.11,East,84,0.0,0.0,83,0.00,,,0.00,Wunderground v.1.15,2013-10-10 09:42:00,
2013-10-10 04:47:00,50.7,45.4,30.11,East,92,0.0,0.0,82,0.00,,,0.00,Wunderground v.1.15,2013-10-10 09:47:00,
2013-10-10 04:52:00,50.9,45.6,30.11,SSW,210,0.0,0.0,82,0.00,,,0.00,Wunderground v.1.15,2013-10-10 09:52:00,
2013-10-10 04:57:00,51.0,45.7,30.11,SSW,210,0.0,0.0,82,0.00,,,0.00,Wunderground v.1.15,2013-10-10 09:57:00,
2013-10-10 05:02:00,51.3,45.7,30.12,SW,234,0.0,0.0,81,0.00,,,0.00,Wunderground v.1.15,2013-10-10 10:02:00,
2013-10-10 05:07:00,51.5,45.9,30.12,SE,136,0.0,0.0,81,0.00,,,0.00,Wunderground v.1.15,2013-10-10 10:07:00,
2013-10-10 05:12:00,51.7,45.7,30.12,South,187,0.0,0.0,80,0.00,,,0.00,Wunderground v.1.15,2013-10-10 10:12:00,
2013-10-10 05:17:00,51.9,45.9,30.12,SSE,157,0.0,0.0,80,0.00,,,0.00,Wunderground v.1.15,2013-10-10 10:17:00,
2013-10-10 05:22:00,52.1,46.1,30.12,South,179,0.0,0.0,80,0.00,,,0.00,Wunderground v.1.15,2013-10-10 10:22:00,
2013-10-10 05:27:00,52.0,45.7,30.12,South,169,0.0,0.0,79,0.00,,,0.00,Wunderground v.1.15,2013-10-10 10:27:00,
2013-10-10 05:32:00,52.0,46.0,30.12,SSE,161,0.0,0.0,80,0.00,,,0.00,Wunderground v.1.15,2013-10-10 10:32:00,
2013-10-10 05:37:00,51.9,45.9,30.13,SW,229,0.0,0.0,80,0.00,,,0.00,Wunderground v.1.15,2013-10-10 10:37:00,
2013-10-10 05:42:00,51.8,45.8,30.13,SSW,196,0.0,0.0,80,0.00,,,0.00,Wunderground v.1.15,2013-10-10 10:42:00,
2013-10-10 05:47:00,51.6,46.0,30.13,South,187,0.0,0.0,81,0.00,,,0.00,Wunderground v.1.15,2013-10-10 10:47:00,
2013-10-10 05:52:00,51.5,46.2,30.13,SSE,167,0.0,0.0,82,0.00,,,0.00,Wunderground v.1.15,2013-10-10 10:52:00,
2013-10-10 05:57:00,51.4,46.4,30.13,SSE,157,0.0,0.0,83,0.00,,,0.00,Wunderground v.1.15,2013-10-10 10:57:00,
2013-10-10 06:02:00,51.5,46.2,30.13,SE,143,0.0,0.0,82,0.00,,,0.00,Wunderground v.1.15,2013-10-10 11:02:00,
2013-10-10 06:07:00,51.5,45.9,30.12,SSE,161,0.0,0.0,81,0.00,,,0.00,Wunderground v.1.15,2013-10-10 11:07:00,
2013-10-10 06:12:00,51.7,45.7,30.13,South,171,0.0,0.0,80,0.00,,,0.00,Wunderground v.1.15,2013-10-10 11:12:00,
2013-10-10 06:17:00,51.8,45.8,30.13,South,173,0.0,0.0,80,0.00,,,0.00,Wunderground v.1.15,2013-10-10 11:17:00,
2013-10-10 06:22:00,51.9,45.9,30.13,SSE,155,0.0,0.0,80,0.00,,,0.00,Wunderground v.1.15,2013-10-10 11:22:00,
2013-10-10 06:27:00,51.9,45.6,30.13,SE,136,0.0,0.0,79,0.00,,,0.00,Wunderground v.1.15,2013-10-10 11:27:00,
2013-10-10 06:32:00,51.9,45.6,30.13,SE,138,0.0,0.0,79,0.00,,,0.00,Wunderground v.1.15,2013-10-10 11:32:00,
2013-10-10 06:37:00,51.8,45.5,30.13,SE,138,0.0,0.0,79,0.00,,,0.00,Wunderground v.1.15,2013-10-10 11:37:00,
2013-10-10 06:42:00,51.7,45.4,30.13,South,184,0.0,0.0,79,0.00,,,0.00,Wunderground v.1.15,2013-10-10 11:42:00,
2013-10-10 06:47:00,51.8,45.5,30.13,SSW,198,0.0,0.0,79,0.00,,,0.00,Wunderground v.1.15,2013-10-10 11:47:00,
2013-10-10 06:52:00,52.3,45.3,30.13,South,175,0.0,0.0,77,0.00,,,0.00,Wunderground v.1.15,2013-10-10 11:52:00,
2013-10-10 06:57:00,52.7,45.3,30.12,SSE,168,0.0,0.0,76,0.00,,,0.00,Wunderground v.1.15,2013-10-10 11:57:00,
2013-10-10 07:02:00,53.1,45.4,30.12,SSE,164,0.0,0.0,75,0.00,,,0.00,Wunderground v.1.15,2013-10-10 12:02:00,
2013-10-10 07:07:00,53.6,45.2,30.13,ESE,119,0.0,0.0,73,0.00,,,0.00,Wunderground v.1.15,2013-10-10 12:07:00,
2013-10-10 07:12:00,54.1,45.3,30.13,South,190,0.0,0.0,72,0.00,,,0.00,Wunderground v.1.15,2013-10-10 12:12:00,
2013-10-10 07:17:00,54.3,45.1,30.13,SE,140,0.0,0.0,71,0.00,,,0.00,Wunderground v.1.15,2013-10-10 12:17:00,
2013-10-10 07:22:00,54.4,44.8,30.13,ESE,104,0.0,0.0,70,0.00,,,0.00,Wunderground v.1.15,2013-10-10 12:22:00,
2013-10-10 07:27:00,54.8,44.8,30.13,SW,221,0.0,0.0,69,0.00,,,0.00,Wunderground v.1.15,2013-10-10 12:27:00,
2013-10-10 07:32:00,54.9,44.9,30.13,SSE,168,0.0,0.0,69,0.00,,,0.00,Wunderground v.1.15,2013-10-10 12:32:00,
2013-10-10 07:38:00,54.9,44.9,30.13,SSE,168,0.0,0.0,69,0.00,,,0.00,Wunderground v.1.15,2013-10-10 12:38:00,
2013-10-10 07:43:00,55.0,45.0,30.13,South,182,0.0,0.0,69,0.00,,,0.00,Wunderground v.1.15,2013-10-10 12:43:00,
2013-10-10 07:48:00,54.9,44.9,30.13,South,182,0.0,0.0,69,0.00,,,0.00,Wunderground v.1.15,2013-10-10 12:48:00,
2013-10-10 07:53:00,-999.9,-99.9,30.13,South,182,0.0,0.0,255,0.00,,,0.00,Wunderground v.1.15,2013-10-10 12:53:00,
2013-10-10 07:58:00,55.1,45.1,30.13,South,182,0.0,0.0,69,0.00,,,0.00,Wunderground v.1.15,2013-10-10 12:58:00,
2013-10-10 08:03:00,55.1,45.5,30.13,South,182,0.0,0.0,70,0.00,,,0.00,Wunderground v.1.15,2013-10-10 13:03:00,
2013-10-10 08:08:00,55.0,45.4,30.13,South,184,0.0,0.0,70,0.00,,,0.00,Wunderground v.1.15,2013-10-10 13:08:00,
2013-10-10 08:13:00,54.9,45.7,30.13,South,184,0.0,0.0,71,0.00,,,0.00,Wunderground v.1.15,2013-10-10 13:13:00,
2013-10-10 08:18:00,54.9,46.0,30.13,South,184,0.0,0.0,72,0.00,,,0.00,Wunderground v.1.15,2013-10-10 13:18:00,
2013-10-10 08:23:00,54.8,45.9,30.13,South,185,0.0,0.0,72,0.00,,,0.00,Wunderground v.1.15,2013-10-10 13:23:00,
2013-10-10 08:28:00,54.8,45.9,30.13,South,182,0.0,0.0,72,0.00,,,0.00,Wunderground v.1.15,2013-10-10 13:28:00,
2013-10-10 08:33:00,54.7,46.2,30.13,South,182,0.0,0.0,73,0.00,,,0.00,Wunderground v.1.15,2013-10-10 13:33:00,
2013-10-10 08:38:00,54.7,46.6,30.13,South,173,0.0,0.0,74,0.00,,,0.00,Wunderground v.1.15,2013-10-10 13:38:00,
2013-10-10 08:43:00,54.8,47.0,30.13,WSW,241,0.0,0.0,75,0.00,,,0.00,Wunderground v.1.15,2013-10-10 13:43:00,
2013-10-10 08:48:00,55.0,46.9,30.13,WSW,241,0.0,0.0,74,0.00,,,0.00,Wunderground v.1.15,2013-10-10 13:48:00,
2013-10-10 08:53:00,55.2,47.1,30.13,NE,50,0.0,0.0,74,0.00,,,0.00,Wunderground v.1.15,2013-10-10 13:53:00,
2013-10-10 08:58:00,55.4,46.9,30.13,NE,51,0.0,0.0,73,0.00,,,0.00,Wunderground v.1.15,2013-10-10 13:58:00,
2013-10-10 09:03:00,55.7,47.5,30.13,NE,55,0.0,0.0,74,0.00,,,0.00,Wunderground v.1.15,2013-10-10 14:03:00,
2013-10-10 09:08:00,56.1,47.6,30.13,South,174,0.0,0.0,73,0.00,,,0.00,Wunderground v.1.15,2013-10-10 14:08:00,
2013-10-10 09:13:00,56.5,47.6,30.14,SSE,164,0.0,0.0,72,0.00,,,0.00,Wunderground v.1.15,2013-10-10 14:13:00,
2013-10-10 09:18:00,56.9,47.2,30.13,South,188,0.0,0.0,70,0.00,,,0.00,Wunderground v.1.15,2013-10-10 14:18:00,
2013-10-10 09:23:00,57.3,47.2,30.13,SE,131,0.0,0.0,69,0.00,,,0.00,Wunderground v.1.15,2013-10-10 14:23:00,
2013-10-10 09:28:00,57.6,48.3,30.14,SE,132,0.0,0.0,71,0.00,,,0.00,Wunderground v.1.15,2013-10-10 14:28:00,
2013-10-10 09:33:00,57.8,47.7,30.14,SSW,194,0.0,0.0,69,0.00,,,0.00,Wunderground v.1.15,2013-10-10 14:33:00,
2013-10-10 09:38:00,58.3,48.6,30.14,East,88,0.0,0.0,70,0.00,,,0.00,Wunderground v.1.15,2013-10-10 14:38:00,
2013-10-10 09:43:00,58.7,47.8,30.14,South,175,0.0,0.0,67,0.00,,,0.00,Wunderground v.1.15,2013-10-10 14:43:00,
2013-10-10 09:48:00,59.0,48.4,30.14,South,177,0.0,0.0,68,0.00,,,0.00,Wunderground v.1.15,2013-10-10 14:48:00,
2013-10-10 09:54:00,59.0,48.1,30.14,SSW,209,0.0,0.0,67,0.00,,,0.00,Wunderground v.1.15,2013-10-10 14:54:00,
2013-10-10 09:59:00,59.1,47.7,30.13,SSW,211,0.0,0.0,66,0.00,,,0.00,Wunderground v.1.15,2013-10-10 14:59:00,
2013-10-10 10:04:00,59.5,48.1,30.14,SSW,202,0.0,0.0,66,0.00,,,0.00,Wunderground v.1.15,2013-10-10 15:04:00,
2013-10-10 10:09:00,60.1,49.1,30.14,SSW,202,0.0,0.0,67,0.00,,,0.00,Wunderground v.1.15,2013-10-10 15:09:00,
2013-10-10 10:14:00,60.7,48.9,30.13,SSW,202,0.0,0.0,65,0.00,,,0.00,Wunderground v.1.15,2013-10-10 15:14:00,
2013-10-10 10:19:00,61.3,49.4,30.13,SSW,204,0.0,0.0,65,0.00,,,0.00,Wunderground v.1.15,2013-10-10 15:19:00,
2013-10-10 10:24:00,62.1,50.2,30.13,East,79,0.0,0.0,65,0.00,,,0.00,Wunderground v.1.15,2013-10-10 15:24:00,
2013-10-10 10:29:00,62.7,49.5,30.13,WSW,238,0.0,0.0,62,0.00,,,0.00,Wunderground v.1.15,2013-10-10 15:29:00,
2013-10-10 10:34:00,62.9,49.7,30.14,WSW,238,0.0,0.0,62,0.00,,,0.00,Wunderground v.1.15,2013-10-10 15:34:00,
2013-10-10 10:39:00,63.0,49.8,30.14,ESE,122,0.0,0.0,62,0.00,,,0.00,Wunderground v.1.15,2013-10-10 15:39:00,
2013-10-10 10:44:00,63.1,49.9,30.14,South,170,0.0,0.0,62,0.00,,,0.00,Wunderground v.1.15,2013-10-10 15:44:00,
2013-10-10 10:49:00,63.4,50.1,30.13,SSE,167,0.0,0.0,62,0.00,,,0.00,Wunderground v.1.15,2013-10-10 15:49:00,
2013-10-10 10:54:00,63.7,50.0,30.13,East,95,0.0,0.0,61,0.00,,,0.00,Wunderground v.1.15,2013-10-10 15:54:00,
2013-10-10 10:59:00,64.1,50.4,30.13,SE,134,0.0,0.0,61,0.00,,,0.00,Wunderground v.1.15,2013-10-10 15:59:00,
2013-10-10 11:04:00,64.6,50.8,30.13,SW,221,0.0,0.0,61,0.00,,,0.00,Wunderground v.1.15,2013-10-10 16:04:00,
2013-10-10 11:09:00,64.9,51.1,30.13,SSE,165,0.0,0.0,61,0.00,,,0.00,Wunderground v.1.15,2013-10-10 16:09:00,
2013-10-10 11:14:00,65.0,52.1,30.13,SW,220,0.0,0.0,63,0.00,,,0.00,Wunderground v.1.15,2013-10-10 16:14:00,
2013-10-10 11:19:00,64.9,51.1,30.13,ENE,74,0.0,0.0,61,0.00,,,0.00,Wunderground v.1.15,2013-10-10 16:19:00,
2013-10-10 11:24:00,64.9,52.0,30.13,ENE,74,0.0,0.0,63,0.00,,,0.00,Wunderground v.1.15,2013-10-10 16:24:00,
2013-10-10 11:29:00,65.4,51.6,30.13,SSE,167,0.0,0.0,61,0.00,,,0.00,Wunderground v.1.15,2013-10-10 16:29:00,
2013-10-10 11:34:00,65.8,51.5,30.12,ESE,117,0.0,0.0,60,0.00,,,0.00,Wunderground v.1.15,2013-10-10 16:34:00,
2013-10-10 11:39:00,65.7,51.0,30.12,South,171,0.0,0.0,59,0.00,,,0.00,Wunderground v.1.15,2013-10-10 16:39:00,
2013-10-10 11:44:00,65.4,51.1,30.12,South,171,0.0,0.0,60,0.00,,,0.00,Wunderground v.1.15,2013-10-10 16:44:00,
2013-10-10 11:49:00,65.8,52.4,30.12,NE,53,0.0,0.0,62,0.00,,,0.00,Wunderground v.1.15,2013-10-10 16:49:00,
2013-10-10 11:54:00,66.2,51.4,30.12,NE,42,0.0,0.0,59,0.00,,,0.00,Wunderground v.1.15,2013-10-10 16:54:00,
2013-10-10 11:59:00,66.4,51.2,30.12,SSE,149,0.0,0.0,58,0.00,,,0.00,Wunderground v.1.15,2013-10-10 16:59:00,
2013-10-10 12:04:00,66.7,52.4,30.12,ENE,74,0.0,0.0,60,0.00,,,0.00,Wunderground v.1.15,2013-10-10 17:04:00,
2013-10-10 12:09:00,67.1,52.3,30.12,ENE,74,0.0,0.0,59,0.00,,,0.00,Wunderground v.1.15,2013-10-10 17:09:00,
2013-10-10 12:15:00,67.6,53.7,30.11,East,94,0.0,0.0,61,0.00,,,0.00,Wunderground v.1.15,2013-10-10 17:15:00,
2013-10-10 12:20:00,68.0,53.6,30.11,NE,52,0.0,0.0,60,0.00,,,0.00,Wunderground v.1.15,2013-10-10 17:20:00,
2013-10-10 12:25:00,68.1,53.2,30.11,ENE,68,0.0,0.0,59,0.00,,,0.00,Wunderground v.1.15,2013-10-10 17:25:00,
2013-10-10 12:30:00,68.1,52.3,30.11,ENE,67,0.0,0.0,57,0.00,,,0.00,Wunderground v.1.15,2013-10-10 17:30:00,
2013-10-10 12:35:00,68.3,52.9,30.10,South,190,0.0,0.0,58,0.00,,,0.00,Wunderground v.1.15,2013-10-10 17:35:00,
2013-10-10 12:40:00,68.3,52.5,30.10,North,355,0.0,0.0,57,0.00,,,0.00,Wunderground v.1.15,2013-10-10 17:40:00,
2013-10-10 12:45:00,68.6,52.3,30.09,NE,52,0.0,0.0,56,0.00,,,0.00,Wunderground v.1.15,2013-10-10 17:45:00,
2013-10-10 12:50:00,68.4,51.6,30.09,NE,36,0.0,0.0,55,0.00,,,0.00,Wunderground v.1.15,2013-10-10 17:50:00,
2013-10-10 12:55:00,68.0,51.2,30.09,East,97,0.0,0.0,55,0.00,,,0.00,Wunderground v.1.15,2013-10-10 17:55:00,
2013-10-10 13:00:00,67.9,51.1,30.09,NNE,31,0.0,0.0,55,0.00,,,0.00,Wunderground v.1.15,2013-10-10 18:00:00,
2013-10-10 13:05:00,68.3,51.0,30.09,ENE,70,0.0,0.0,54,0.00,,,0.00,Wunderground v.1.15,2013-10-10 18:05:00,
2013-10-10 13:10:00,68.8,49.9,30.09,ENE,75,0.0,0.0,51,0.00,,,0.00,Wunderground v.1.15,2013-10-10 18:10:00,
2013-10-10 13:14:00,68.7,50.4,30.09,ENE,76,0.0,0.0,52,0.00,,,0.00,Wunderground v.1.15,2013-10-10 18:14:00,
2013-10-10 13:19:00,68.9,50.5,30.09,ENE,73,0.0,0.0,52,0.00,,,0.00,Wunderground v.1.15,2013-10-10 18:19:00,
2013-10-10 13:24:00,69.3,51.4,30.09,NNE,12,0.0,0.0,53,0.00,,,0.00,Wunderground v.1.15,2013-10-10 18:24:00,
2013-10-10 13:29:00,69.3,49.9,30.08,East,90,0.0,0.0,50,0.00,,,0.00,Wunderground v.1.15,2013-10-10 18:29:00,
2013-10-10 13:34:00,69.1,50.7,30.08,East,84,0.0,0.0,52,0.00,,,0.00,Wunderground v.1.15,2013-10-10 18:34:00,
2013-10-10 13:39:00,69.3,51.4,30.08,ENE,69,0.0,0.0,53,0.00,,,0.00,Wunderground v.1.15,2013-10-10 18:39:00,
2013-10-10 13:44:00,69.4,51.0,30.08,NNE,22,0.0,0.0,52,0.00,,,0.00,Wunderground v.1.15,2013-10-10 18:44:00,
2013-10-10 13:50:00,69.4,51.0,30.08,ENE,65,0.0,0.0,52,0.00,,,0.00,Wunderground v.1.15,2013-10-10 18:50:00,
2013-10-10 13:55:00,69.4,51.0,30.07,East,98,0.0,0.0,52,0.00,,,0.00,Wunderground v.1.15,2013-10-10 18:55:00,
2013-10-10 14:00:00,69.2,50.3,30.07,SE,145,0.0,0.0,51,0.00,,,0.00,Wunderground v.1.15,2013-10-10 19:00:00,
2013-10-10 14:05:00,68.8,50.5,30.08,ESE,107,0.0,0.0,52,0.00,,,0.00,Wunderground v.1.15,2013-10-10 19:05:00,
2013-10-10 14:10:00,68.5,50.7,30.07,NE,44,0.0,0.0,53,0.00,,,0.00,Wunderground v.1.15,2013-10-10 19:10:00,
2013-10-10 14:15:00,68.9,50.5,30.07,ENE,76,0.0,0.0,52,0.00,,,0.00,Wunderground v.1.15,2013-10-10 19:15:00,
2013-10-10 14:20:00,69.7,51.3,30.07,ENE,66,0.0,0.0,52,0.00,,,0.00,Wunderground v.1.15,2013-10-10 19:20:00,
2013-10-10 14:25:00,70.2,50.7,30.07,South,173,0.0,0.0,50,0.00,,,0.00,Wunderground v.1.15,2013-10-10 19:25:00,
2013-10-10 14:30:00,70.3,50.8,30.07,South,187,0.0,0.0,50,0.00,,,0.00,Wunderground v.1.15,2013-10-10 19:30:00,
2013-10-10 14:35:00,70.2,50.7,30.06,SSW,200,0.0,0.0,50,0.00,,,0.00,Wunderground v.1.15,2013-10-10 19:35:00,
2013-10-10 14:40:00,70.3,51.3,30.06,NE,49,0.0,0.0,51,0.00,,,0.00,Wunderground v.1.15,2013-10-10 19:40:00,
2013-10-10 14:45:00,70.1,51.1,30.06,East,92,0.0,0.0,51,0.00,,,0.00,Wunderground v.1.15,2013-10-10 19:45:00,
2013-10-10 14:50:00,70.0,50.5,30.06,WSW,253,0.0,0.0,50,0.00,,,0.00,Wunderground v.1.15,2013-10-10 19:50:00,
2013-10-10 14:55:00,69.9,50.9,30.06,SSW,204,0.0,0.0,51,0.00,,,0.00,Wunderground v.1.15,2013-10-10 19:55:00,
2013-10-10 15:00:00,69.8,50.9,30.06,SSW,204,0.0,0.0,51,0.00,,,0.00,Wunderground v.1.15,2013-10-10 20:00:00,
2013-10-10 15:05:00,69.8,51.9,30.05,West,261,0.0,0.0,53,0.00,,,0.00,Wunderground v.1.15,2013-10-10 20:05:00,
2013-10-10 15:10:00,70.0,51.6,30.05,ENE,63,0.0,0.0,52,0.00,,,0.00,Wunderground v.1.15,2013-10-10 20:10:00,
2013-10-10 15:15:00,69.9,50.9,30.05,NW,307,0.0,0.0,51,0.00,,,0.00,Wunderground v.1.15,2013-10-10 20:15:00,
2013-10-10 15:20:00,70.0,51.6,30.05,NNE,32,0.0,0.0,52,0.00,,,0.00,Wunderground v.1.15,2013-10-10 20:20:00,
2013-10-10 15:25:00,70.0,51.6,30.05,ENE,78,0.0,0.0,52,0.00,,,0.00,Wunderground v.1.15,2013-10-10 20:25:00,
2013-10-10 15:30:00,70.0,51.6,30.04,North,355,0.0,0.0,52,0.00,,,0.00,Wunderground v.1.15,2013-10-10 20:30:00,
2013-10-10 15:31:00,70.0,51.6,30.04,North,355,0.0,0.0,52,0.00,,,0.00,Wunderground v.1.15,2013-10-10 20:31:00,
2013-10-10 15:36:00,70.1,51.7,30.04,East,98,0.0,0.0,52,0.00,,,0.00,Wunderground v.1.15,2013-10-10 20:36:00,
2013-10-10 15:41:00,70.3,51.8,30.04,NNE,33,0.0,0.0,52,0.00,,,0.00,Wunderground v.1.15,2013-10-10 20:41:00,
2013-10-10 15:46:00,70.3,50.2,30.04,NE,55,0.0,0.0,49,0.00,,,0.00,Wunderground v.1.15,2013-10-10 20:46:00,
2013-10-10 15:51:00,70.4,51.9,30.04,NE,51,0.0,0.0,52,0.00,,,0.00,Wunderground v.1.15,2013-10-10 20:51:00,
2013-10-10 15:56:00,70.5,50.4,30.04,South,174,0.0,0.0,49,0.00,,,0.00,Wunderground v.1.15,2013-10-10 20:56:00,
2013-10-10 16:01:00,70.4,50.3,30.03,ENE,57,0.0,0.0,49,0.00,,,0.00,Wunderground v.1.15,2013-10-10 21:01:00,
2013-10-10 16:06:00,70.4,48.6,30.03,SE,144,0.0,0.0,46,0.00,,,0.00,Wunderground v.1.15,2013-10-10 21:06:00,
2013-10-10 16:11:00,70.4,49.2,30.03,SSW,204,0.0,0.0,47,0.00,,,0.00,Wunderground v.1.15,2013-10-10 21:11:00,
2013-10-10 16:16:00,70.5,48.7,30.03,WSW,239,0.0,0.0,46,0.00,,,0.00,Wunderground v.1.15,2013-10-10 21:16:00,
2013-10-10 16:21:00,70.3,49.1,30.03,ENE,74,0.0,0.0,47,0.00,,,0.00,Wunderground v.1.15,2013-10-10 21:21:00,
2013-10-10 16:26:00,70.3,48.5,30.03,SE,125,0.0,0.0,46,0.00,,,0.00,Wunderground v.1.15,2013-10-10 21:26:00,
2013-10-10 16:31:00,70.2,49.0,30.03,North,360,0.0,0.0,47,0.00,,,0.00,Wunderground v.1.15,2013-10-10 21:31:00,
2013-10-10 16:36:00,70.3,49.7,30.03,East,95,0.0,0.0,48,0.00,,,0.00,Wunderground v.1.15,2013-10-10 21:36:00,
2013-10-10 16:41:00,70.3,49.1,30.03,SE,128,0.0,0.0,47,0.00,,,0.00,Wunderground v.1.15,2013-10-10 21:41:00,
2013-10-10 16:46:00,70.1,48.4,30.04,SSE,168,0.0,0.0,46,0.00,,,0.00,Wunderground v.1.15,2013-10-10 21:46:00,
2013-10-10 16:51:00,70.0,48.8,30.04,SSE,148,0.0,0.0,47,0.00,,,0.00,Wunderground v.1.15,2013-10-10 21:51:00,
2013-10-10 16:56:00,69.7,49.1,30.04,ENE,70,0.0,0.0,48,0.00,,,0.00,Wunderground v.1.15,2013-10-10 21:56:00,
2013-10-10 17:01:00,69.6,49.6,30.03,SW,215,0.0,0.0,49,0.00,,,0.00,Wunderground v.1.15,2013-10-10 22:01:00,
2013-10-10 17:06:00,69.2,49.2,30.03,NE,41,0.0,0.0,49,0.00,,,0.00,Wunderground v.1.15,2013-10-10 22:06:00,
2013-10-10 17:11:00,68.9,50.0,30.03,South,178,0.0,0.0,51,0.00,,,0.00,Wunderground v.1.15,2013-10-10 22:11:00,
2013-10-10 17:16:00,68.6,50.3,30.04,SSE,167,0.0,0.0,52,0.00,,,0.00,Wunderground v.1.15,2013-10-10 22:16:00,
2013-10-10 17:21:00,68.3,50.0,30.04,SSE,160,0.0,0.0,52,0.00,,,0.00,Wunderground v.1.15,2013-10-10 22:21:00,
2013-10-10 17:26:00,68.0,50.2,30.03,ESE,104,0.0,0.0,53,0.00,,,0.00,Wunderground v.1.15,2013-10-10 22:26:00,
2013-10-10 17:32:00,67.6,50.4,30.03,NNE,19,0.0,0.0,54,0.00,,,0.00,Wunderground v.1.15,2013-10-10 22:32:00,
2013-10-10 17:37:00,67.2,49.5,30.03,NW,307,0.0,0.0,53,0.00,,,0.00,Wunderground v.1.15,2013-10-10 22:37:00,
2013-10-10 17:42:00,66.8,49.6,30.03,NW,307,0.0,0.0,54,0.00,,,0.00,Wunderground v.1.15,2013-10-10 22:42:00,
2013-10-10 17:47:00,66.5,49.3,30.03,NW,308,0.0,0.0,54,0.00,,,0.00,Wunderground v.1.15,2013-10-10 22:47:00,
2013-10-10 17:52:00,66.2,49.1,30.03,NW,308,0.0,0.0,54,0.00,,,0.00,Wunderground v.1.15,2013-10-10 22:52:00,
2013-10-10 17:57:00,66.0,49.4,30.03,NW,308,0.0,0.0,55,0.00,,,0.00,Wunderground v.1.15,2013-10-10 22:57:00,
2013-10-10 18:02:00,65.6,49.5,30.03,NW,308,0.0,0.0,56,0.00,,,0.00,Wunderground v.1.15,2013-10-10 23:02:00,
2013-10-10 18:07:00,65.2,49.1,30.04,NW,308,0.0,0.0,56,0.00,,,0.00,Wunderground v.1.15,2013-10-10 23:07:00,
2013-10-10 18:12:00,64.8,49.2,30.03,NW,308,0.0,0.0,57,0.00,,,0.00,Wunderground v.1.15,2013-10-10 23:12:00,
2013-10-10 18:17:00,64.3,49.2,30.03,NW,309,0.0,0.0,58,0.00,,,0.00,Wunderground v.1.15,2013-10-10 23:17:00,
2013-10-10 18:22:00,64.0,48.9,30.03,NW,311,0.0,0.0,58,0.00,,,0.00,Wunderground v.1.15,2013-10-10 23:22:00,
2013-10-10 18:27:00,63.8,48.7,30.03,NW,312,0.0,0.0,58,0.00,,,0.00,Wunderground v.1.15,2013-10-10 23:27:00,
2013-10-10 18:32:00,63.8,48.7,30.03,NW,312,0.0,0.0,58,0.00,,,0.00,Wunderground v.1.15,2013-10-10 23:32:00,
2013-10-10 18:37:00,63.8,49.2,30.03,East,80,0.0,0.0,59,0.00,,,0.00,Wunderground v.1.15,2013-10-10 23:37:00,
2013-10-10 18:42:00,63.7,49.1,30.03,ENE,76,0.0,0.0,59,0.00,,,0.00,Wunderground v.1.15,2013-10-10 23:42:00,
2013-10-10 18:47:00,63.6,49.0,30.03,ENE,76,0.0,0.0,59,0.00,,,0.00,Wunderground v.1.15,2013-10-10 23:47:00,
2013-10-10 18:52:00,63.4,49.3,30.03,ENE,72,0.0,0.0,60,0.00,,,0.00,Wunderground v.1.15,2013-10-10 23:52:00,
2013-10-10 18:57:00,63.1,49.4,30.02,ENE,72,0.0,0.0,61,0.00,,,0.00,Wunderground v.1.15,2013-10-10 23:57:00,
2013-10-10 19:02:00,63.0,48.9,30.02,ENE,78,0.0,0.0,60,0.00,,,0.00,Wunderground v.1.15,2013-10-11 00:02:00,
2013-10-10 19:07:00,63.0,49.3,30.02,ENE,63,0.0,0.0,61,0.00,,,0.00,Wunderground v.1.15,2013-10-11 00:07:00,
2013-10-10 19:12:00,62.8,49.1,30.02,East,85,0.0,0.0,61,0.00,,,0.00,Wunderground v.1.15,2013-10-11 00:12:00,
2013-10-10 19:17:00,62.6,49.4,30.02,ENE,76,0.0,0.0,62,0.00,,,0.00,Wunderground v.1.15,2013-10-11 00:17:00,
2013-10-10 19:22:00,62.3,49.5,30.02,ENE,64,0.0,0.0,63,0.00,,,0.00,Wunderground v.1.15,2013-10-11 00:22:00,
2013-10-10 19:27:00,62.1,49.8,30.03,ENE,64,0.0,0.0,64,0.00,,,0.00,Wunderground v.1.15,2013-10-11 00:27:00,
2013-10-10 19:32:00,62.1,49.8,30.02,NE,45,0.0,0.0,64,0.00,,,0.00,Wunderground v.1.15,2013-10-11 00:32:00,
2013-10-10 19:37:00,62.0,49.7,30.02,ENE,59,0.0,0.0,64,0.00,,,0.00,Wunderground v.1.15,2013-10-11 00:37:00,
2013-10-10 19:42:00,62.0,49.7,30.03,East,84,0.0,0.0,64,0.00,,,0.00,Wunderground v.1.15,2013-10-11 00:42:00,
2013-10-10 19:47:00,62.0,49.7,30.03,NNE,24,0.0,0.0,64,0.00,,,0.00,Wunderground v.1.15,2013-10-11 00:47:00,
2013-10-10 19:52:00,62.1,49.8,30.02,NE,53,0.0,0.0,64,0.00,,,0.00,Wunderground v.1.15,2013-10-11 00:52:00,
2013-10-10 19:57:00,62.1,49.8,30.02,ENE,66,0.0,0.0,64,0.00,,,0.00,Wunderground v.1.15,2013-10-11 00:57:00,
2013-10-10 20:02:00,62.0,49.7,30.02,East,82,0.0,0.0,64,0.00,,,0.00,Wunderground v.1.15,2013-10-11 01:02:00,
2013-10-10 20:07:00,62.0,49.7,30.02,ENE,64,0.0,0.0,64,0.00,,,0.00,Wunderground v.1.15,2013-10-11 01:07:00,
2013-10-10 20:12:00,61.9,49.6,30.02,NNE,30,0.0,0.0,64,0.00,,,0.00,Wunderground v.1.15,2013-10-11 01:12:00,
2013-10-10 20:17:00,61.7,49.8,30.02,NE,36,0.0,0.0,65,0.00,,,0.00,Wunderground v.1.15,2013-10-11 01:17:00,
2013-10-10 20:22:00,61.5,49.6,30.02,NE,41,0.0,0.0,65,0.00,,,0.00,Wunderground v.1.15,2013-10-11 01:22:00,
2013-10-10 20:27:00,61.2,49.3,30.02,ENE,65,0.0,0.0,65,0.00,,,0.00,Wunderground v.1.15,2013-10-11 01:27:00,
2013-10-10 20:32:00,61.1,49.2,30.02,NE,44,0.0,0.0,65,0.00,,,0.00,Wunderground v.1.15,2013-10-11 01:32:00,
2013-10-10 20:37:00,61.0,49.1,30.02,NE,53,0.0,0.0,65,0.00,,,0.00,Wunderground v.1.15,2013-10-11 01:37:00,
2013-10-10 20:42:00,61.1,49.2,30.02,NE,56,0.0,0.0,65,0.00,,,0.00,Wunderground v.1.15,2013-10-11 01:42:00,
2013-10-10 20:47:00,61.1,49.2,30.02,NE,56,0.0,0.0,65,0.00,,,0.00,Wunderground v.1.15,2013-10-11 01:47:00,
2013-10-10 20:52:00,61.0,49.1,30.02,East,80,0.0,0.0,65,0.00,,,0.00,Wunderground v.1.15,2013-10-11 01:52:00,
2013-10-10 20:57:00,60.9,49.1,30.02,East,80,0.0,0.0,65,0.00,,,0.00,Wunderground v.1.15,2013-10-11 01:57:00,
2013-10-10 21:02:00,60.8,49.0,30.02,NNE,24,0.0,0.0,65,0.00,,,0.00,Wunderground v.1.15,2013-10-11 02:02:00,
2013-10-10 21:07:00,60.8,49.4,30.02,ENE,57,0.0,0.0,66,0.00,,,0.00,Wunderground v.1.15,2013-10-11 02:07:00,
2013-10-10 21:12:00,60.7,48.9,30.02,ENE,58,0.0,0.0,65,0.00,,,0.00,Wunderground v.1.15,2013-10-11 02:12:00,
2013-10-10 21:17:00,60.8,49.0,30.02,NNE,26,0.0,0.0,65,0.00,,,0.00,Wunderground v.1.15,2013-10-11 02:17:00,
2013-10-10 21:22:00,60.8,49.0,30.01,NE,53,0.0,0.0,65,0.00,,,0.00,Wunderground v.1.15,2013-10-11 02:22:00,
2013-10-10 21:27:00,60.6,49.2,30.01,NE,38,0.0,0.0,66,0.00,,,0.00,Wunderground v.1.15,2013-10-11 02:27:00,
2013-10-10 21:32:00,60.5,49.1,30.01,NE,53,0.0,0.0,66,0.00,,,0.00,Wunderground v.1.15,2013-10-11 02:32:00,
2013-10-10 21:37:00,60.2,49.2,30.02,NE,40,0.0,0.0,67,0.00,,,0.00,Wunderground v.1.15,2013-10-11 02:37:00,
2013-10-10 21:42:00,59.7,49.1,30.01,North,5,0.0,0.0,68,0.00,,,0.00,Wunderground v.1.15,2013-10-11 02:42:00,
2013-10-10 21:47:00,59.4,49.2,30.01,ENE,71,0.0,0.0,69,0.00,,,0.00,Wunderground v.1.15,2013-10-11 02:47:00,
2013-10-10 21:52:00,59.2,49.0,30.01,NE,56,0.0,0.0,69,0.00,,,0.00,Wunderground v.1.15,2013-10-11 02:52:00,
2013-10-10 21:57:00,58.8,49.0,30.01,ENE,59,0.0,0.0,70,0.00,,,0.00,Wunderground v.1.15,2013-10-11 02:57:00,
2013-10-10 22:02:00,58.4,49.4,30.01,NE,50,0.0,0.0,72,0.00,,,0.00,Wunderground v.1.15,2013-10-11 03:02:00,
2013-10-10 22:07:00,57.9,49.3,30.01,ENE,68,0.0,0.0,73,0.00,,,0.00,Wunderground v.1.15,2013-10-11 03:07:00,
2013-10-10 22:12:00,57.5,49.3,30.01,ENE,65,0.0,0.0,74,0.00,,,0.00,Wunderground v.1.15,2013-10-11 03:12:00,
2013-10-10 22:17:00,57.3,49.8,30.01,ENE,71,0.0,0.0,76,0.00,,,0.00,Wunderground v.1.15,2013-10-11 03:17:00,
2013-10-10 22:22:00,57.0,49.9,30.01,ENE,61,0.0,0.0,77,0.00,,,0.00,Wunderground v.1.15,2013-10-11 03:22:00,
2013-10-10 22:27:00,56.7,49.9,30.01,ENE,78,0.0,0.0,78,0.00,,,0.00,Wunderground v.1.15,2013-10-11 03:27:00,
2013-10-10 22:32:00,56.6,50.2,30.01,ENE,70,0.0,0.0,79,0.00,,,0.00,Wunderground v.1.15,2013-10-11 03:32:00,
2013-10-10 22:37:00,56.4,50.0,30.01,East,85,0.0,0.0,79,0.00,,,0.00,Wunderground v.1.15,2013-10-11 03:37:00,
2013-10-10 22:42:00,56.1,50.0,30.01,ENE,58,0.0,0.0,80,0.00,,,0.00,Wunderground v.1.15,2013-10-11 03:42:00,
2013-10-10 22:47:00,55.8,50.1,30.02,ENE,67,0.0,0.0,81,0.00,,,0.00,Wunderground v.1.15,2013-10-11 03:47:00,
2013-10-10 22:53:00,55.6,50.2,30.02,ENE,76,0.0,0.0,82,0.00,,,0.00,Wunderground v.1.15,2013-10-11 03:53:00,
2013-10-10 22:58:00,55.5,50.1,30.02,ENE,69,0.0,0.0,82,0.00,,,0.00,Wunderground v.1.15,2013-10-11 03:58:00,
2013-10-10 23:01:00,55.4,50.0,30.02,ENE,77,0.0,0.0,82,0.00,,,0.00,Wunderground v.1.15,2013-10-11 04:01:00,
2013-10-10 23:06:00,55.2,50.1,30.01,East,86,0.0,0.0,83,0.00,,,0.00,Wunderground v.1.15,2013-10-11 04:06:00,
2013-10-10 23:11:00,55.1,50.4,30.01,ENE,65,0.0,0.0,84,0.00,,,0.00,Wunderground v.1.15,2013-10-11 04:11:00,
2013-10-10 23:16:00,55.0,50.3,30.01,ENE,63,0.0,0.0,84,0.00,,,0.00,Wunderground v.1.15,2013-10-11 04:16:00,
2013-10-10 23:21:00,55.0,50.3,30.01,ENE,70,0.0,0.0,84,0.00,,,0.00,Wunderground v.1.15,2013-10-11 04:21:00,
2013-10-10 23:26:00,54.9,50.5,30.01,East,89,0.0,0.0,85,0.00,,,0.00,Wunderground v.1.15,2013-10-11 04:26:00,
2013-10-10 23:31:00,54.9,50.5,30.01,NE,40,0.0,0.0,85,0.00,,,0.00,Wunderground v.1.15,2013-10-11 04:31:00,
2013-10-10 23:36:00,54.9,50.5,30.01,NE,55,0.0,0.0,85,0.00,,,0.00,Wunderground v.1.15,2013-10-11 04:36:00,
2013-10-10 23:41:00,54.8,50.4,30.01,ENE,61,0.0,0.0,85,0.00,,,0.00,Wunderground v.1.15,2013-10-11 04:41:00,
2013-10-10 23:46:00,54.9,50.5,30.01,NE,53,0.0,0.0,85,0.00,,,0.00,Wunderground v.1.15,2013-10-11 04:46:00,
2013-10-10 23:51:00,55.0,50.6,30.01,ENE,76,0.0,0.0,85,0.00,,,0.00,Wunderground v.1.15,2013-10-11 04:51:00,
2013-10-10 23:56:00,55.2,50.8,30.01,ENE,61,0.0,0.0,85,0.00,,,0.00,Wunderground v.1.15,2013-10-11 04:56:00,